sat.trackr.live / text

‹ back to catalog

USA 486

NORAD 62757 · 2025-014Y

PAYLOAD ACTIVE UNKNOWN

§ Identity

Operator
Country
US
Launch date
2025-01-21
Launch site
AFETR
Launch vehicle
Mass (kg)
RCS (m²)

External: N2YO · Heavens-Above · Gunter

§ Orbital elements

Epoch: 2026-05-24T15:39:55.846080Z

Period
91.35 min
Inclination
42.9991°
Eccentricity
0.0002034
Mean motion
15.76418227 rev/d
Perigee alt
339.2 km
Apogee alt
342.0 km
Semi-major
6,718.7 km
B*
9.2998e-4
RAAN
253.8652°
Arg perigee
273.4559°
Mean anomaly
86.6078°
Rev number
7,706

§ Raw data

USA 4861 62757U 25014Y   26144.65272970  .00154091  00000+0  92998-3 0  99932 62757  42.9991 253.8652 0002034 273.4559  86.6078 15.76418227 77066

JSON: /api/v1/satellites/62757 · /tle

For live sub-satellite position, see the globe view (requires WebGL).

§ Visibility from observer

Set your observer location to see the next 7 days of passes ≥ 10°. The values pass through the URL so the page stays shareable.

No JS? Fill the form by hand. The geolocation button needs JavaScript.